カタログに戻る

COSMOS 1275 DEB

運用中PO
NORAD 14358·DEBRIS·🇷🇺 Russia

打ち上げ Jun 4, 1981 から Plesetsk Cosmodrome

Loading…

次のパス (今後24時間)

TLE

最新Source: Space-Track

元期: Sep 14, 2026, 21:51 UTC

1 14358U 81053HR  26257.91097718  .00001775  00000-0  83513-3 0  9995
2 14358  82.8021 242.8933 0168116 139.8434 240.2001 14.12344205195651

AllMySatでCOSMOS 1275 DEBをリアルタイム追跡

Download on the App Store